Weather History for Melbourne Airport, VC

Change the Weather History Date:

Tuesday, July 30, 2013

  Actual Average Record
Temperature  
Mean Temperature 49 °F -  
Max Temperature 57 °F 55 °F 64 °F (2014)
Min Temperature 39 °F 41 °F 33 °F (1997)
Degree Days  
Heating Degree Days 16    
Moisture  
Dew Point 41 °F    
Average Humidity 69    
Maximum Humidity 93    
Minimum Humidity 31    
Precipitation  
Precipitation 0.00 in 0.07 in - ()
Sea Level Pressure  
Sea Level Pressure 30.17 in    
Wind  
Wind Speed 7 mph ()    
Max Wind Speed 13 mph    
Max Gust Speed -    
Visibility 8.3 miles    
Events      
Averages and records for this station are not official NWS values.
T = Trace of Precipitation, MM = Missing Value Source: Averaged Metar Reports

Daily Weather History Graph

Daily Weather History Graph

Search for Another Location

Airport:

Trip Planner

Search our weather history database for the weather conditions in past years. The results will help you decide how hot, cold, wet, or windy it might be!

Date:

Astronomy

Jul. 30, 2013 Rise Set
Actual Time 7:22 AM EST 5:32 PM EST
Civil Twilight 6:54 AM EST 5:59 PM EST
Nautical Twilight 6:23 AM EST 6:31 PM EST
Astronomical Twilight 5:52 AM EST 7:02 PM EST
Moon 12:46 AM EST (7/30) 11:33 AM EST (7/30)
Length of Visible Light 11h 05m
Length of Day
10h 09m
Waning Gibbous, 47% of the Moon is Illuminated
Jul 30
Waning Gibbous
Aug 7
New
Aug 14
First Quarter
Aug 21
Full
Aug 28
Last Quarter

Hourly Weather History & Observations

Time (EST) Temp. Windchill Dew Point Humidity Pressure Visibility Wind Dir Wind Speed Gust Speed Precip Events Conditions
12:00 AM 52 °F - 44 °F 68% 30.09 in 19 mi NNW 5.8 mph - -   Partly Cloudy
12:00 AM 51.8 °F - 44.6 °F 76% 30.06 in 6.2 mi NNW 5.8 mph - N/A   Mostly Cloudy
12:30 AM 53.6 °F - 42.8 °F 67% 30.06 in 6.2 mi NW 9.2 mph - N/A   Mostly Cloudy
1:00 AM 52 °F - 43 °F 63% 30.09 in - WNW 8.1 mph - -  
1:00 AM 51.8 °F - 42.8 °F 71% 30.06 in 6.2 mi WNW 8.1 mph - N/A   Mostly Cloudy
1:30 AM 51.8 °F - 42.8 °F 71% 30.06 in 6.2 mi NW 8.1 mph - N/A   Mostly Cloudy
2:00 AM 51.8 °F - 42.8 °F 71% 30.06 in 6.2 mi NNW 5.8 mph - N/A   Mostly Cloudy
2:30 AM 51.8 °F - 42.8 °F 71% 30.09 in 6.2 mi WNW 3.5 mph - N/A   Mostly Cloudy
3:00 AM 52 °F - 43 °F 63% 30.10 in 19 mi WNW 1.2 mph - -   Partly Cloudy
3:00 AM 51.8 °F - 42.8 °F 71% 30.09 in 6.2 mi WNW 1.2 mph - N/A   Mostly Cloudy
3:30 AM 51.8 °F - 42.8 °F 71% 30.09 in 6.2 mi WSW 10.4 mph - N/A   Mostly Cloudy
4:00 AM 50 °F - 46 °F 82% 30.10 in - West 12.7 mph - -  
4:00 AM 50.0 °F - 46.4 °F 87% 30.09 in 6.2 mi West 12.7 mph - N/A   Mostly Cloudy
4:30 AM 50.0 °F - 46.4 °F 87% 30.09 in 6.2 mi West 12.7 mph - N/A   Mostly Cloudy
5:00 AM 50.0 °F - 46.4 °F 87% 30.09 in 6.2 mi WSW 12.7 mph - N/A   Mostly Cloudy
5:30 AM 50.0 °F - 46.4 °F 87% 30.09 in 6.2 mi WSW 9.2 mph - N/A   Mostly Cloudy
6:00 AM 49 °F - 46 °F 84% 30.14 in 16 mi West 8.1 mph - -   Partly Cloudy
6:00 AM 50.0 °F - 46.4 °F 87% 30.12 in 6.2 mi West 8.1 mph - N/A   Mostly Cloudy
6:30 AM 48.2 °F - 46.4 °F 93% 30.12 in 6.2 mi West 6.9 mph - N/A   Mostly Cloudy
7:00 AM 48 °F - 45 °F 87% 30.16 in - WNW 8.1 mph - -  
7:00 AM 48.2 °F - 44.6 °F 87% 30.12 in 6.2 mi WNW 8.1 mph - N/A   Mostly Cloudy
7:30 AM 48.2 °F - 44.6 °F 87% 30.15 in 6.2 mi West 9.2 mph - N/A   Mostly Cloudy
8:00 AM 48.2 °F - 44.6 °F 87% 30.15 in 6.2 mi West 10.4 mph - N/A   Mostly Cloudy
8:30 AM 50.0 °F - 44.6 °F 82% 30.15 in 6.2 mi West 10.4 mph - N/A   Mostly Cloudy
9:00 AM 49 °F - 44 °F 77% 30.19 in 19 mi West 10.4 mph - -   Partly Cloudy
9:00 AM 50.0 °F - 44.6 °F 82% 30.18 in 6.2 mi West 10.4 mph - N/A   Scattered Clouds
9:30 AM 51.8 °F - 44.6 °F 76% 30.18 in 6.2 mi WSW 12.7 mph - N/A   Partly Cloudy
10:00 AM 53 °F - 43 °F 61% 30.21 in - WSW 9.2 mph - -  
10:00 AM 53.6 °F - 42.8 °F 67% 30.18 in 6.2 mi WSW 9.2 mph - N/A   Partly Cloudy
10:30 AM 53.6 °F - 41.0 °F 62% 30.18 in 6.2 mi WSW 11.5 mph - N/A   Partly Cloudy
11:00 AM 55.4 °F - 39.2 °F 54% 30.21 in 6.2 mi SW 11.5 mph - N/A   Partly Cloudy
11:30 AM 55.4 °F - 39.2 °F 54% 30.18 in 6.2 mi SW 10.4 mph - N/A   Partly Cloudy
12:00 PM 57 °F - 38 °F 37% 30.21 in 19 mi SSW 10.4 mph - -   Partly Cloudy
12:00 PM 57.2 °F - 37.4 °F 48% 30.18 in 6.2 mi SSW 10.4 mph - N/A   Scattered Clouds
12:30 PM 55.4 °F - 37.4 °F 51% 30.18 in 6.2 mi SSW 10.4 mph - N/A   Scattered Clouds
1:00 PM 55 °F - 37 °F 39% 30.20 in - SSW 10.4 mph - -  
1:00 PM 55.4 °F - 37.4 °F 51% 30.18 in 6.2 mi SSW 10.4 mph - N/A   Scattered Clouds
1:30 PM 57.2 °F - 35.6 °F 44% 30.18 in 6.2 mi SSW 9.2 mph - N/A   Scattered Clouds
2:00 PM 57.2 °F - 33.8 °F 41% 30.15 in 6.2 mi South 10.4 mph - N/A   Scattered Clouds
2:30 PM 55.4 °F - 37.4 °F 51% 30.18 in 6.2 mi South 11.5 mph - N/A   Scattered Clouds
3:00 PM 55 °F - 35 °F 35% 30.19 in 19 mi SSE 8.1 mph - -   Partly Cloudy
3:00 PM 55.4 °F - 35.6 °F 47% 30.18 in 6.2 mi SSE 8.1 mph - N/A   Scattered Clouds
3:30 PM 55.4 °F - 32.0 °F 41% 30.18 in 6.2 mi SSW 6.9 mph - N/A   Scattered Clouds
4:00 PM 56 °F - 34 °F 31% 30.20 in - South 10.4 mph - -  
4:00 PM 55.4 °F - 33.8 °F 44% 30.18 in 6.2 mi South 10.4 mph - N/A   Partly Cloudy
4:30 PM 53.6 °F - 35.6 °F 51% 30.18 in 6.2 mi SSE 10.4 mph - N/A   Partly Cloudy
5:00 PM 51.8 °F - 37.4 °F 58% 30.18 in 6.2 mi South 8.1 mph - N/A   Partly Cloudy
5:30 PM 50.0 °F - 39.2 °F 66% 30.21 in 6.2 mi South 8.1 mph - N/A   Partly Cloudy
6:00 PM 49 °F - 38 °F 56% 30.23 in 19 mi SSE 8.1 mph - -   Partly Cloudy
6:00 PM 48.2 °F - 37.4 °F 66% 30.21 in 6.2 mi SSE 8.1 mph - N/A   Partly Cloudy
6:30 PM 48.2 °F - 39.2 °F 71% 30.21 in - SSE 5.8 mph - N/A   Clear
7:00 PM 47 °F - 40 °F 67% 30.25 in - SSE 5.8 mph - -  
7:00 PM 48.2 °F - 39.2 °F 71% 30.21 in - SSE 5.8 mph - N/A   Clear
7:30 PM 48.2 °F - 39.2 °F 71% 30.24 in - SE 5.8 mph - N/A   Clear
8:00 PM 46.4 °F - 39.2 °F 76% 30.24 in - Calm Calm - N/A   Clear
8:30 PM 42.8 °F - 39.2 °F 87% 30.24 in - Calm Calm - N/A   Clear
9:00 PM 42 °F - 39 °F 83% 30.26 in 19 mi Calm Calm - -   Partly Cloudy
9:00 PM 42.8 °F - 39.2 °F 87% 30.24 in - Calm Calm - N/A   Clear
9:30 PM 41.0 °F - 37.4 °F 87% 30.24 in - Calm Calm - N/A   Clear
10:00 PM 41 °F - 39 °F 88% 30.26 in - Calm Calm - -  
10:00 PM 41.0 °F - 39.2 °F 93% 30.24 in - Calm Calm - N/A   Clear
10:30 PM 41.0 °F - 37.4 °F 87% 30.24 in 6.2 mi Calm Calm - N/A   Mostly Cloudy
11:00 PM 41.0 °F 37.1 °F 37.4 °F 87% 30.24 in 6.2 mi North 5.8 mph - N/A   Scattered Clouds
11:30 PM 39.2 °F 35.0 °F 37.4 °F 93% 30.24 in 6.2 mi North 5.8 mph - N/A   Scattered Clouds